Estación de Curicó
Ultimos registro cada 15 minutos 67
| N° | Estación | Fecha / Hora | Temperatura | Humedad | Lluvia | Velocidad | Dirección | Radiación | Presion |
| 67 | Curicó | 04-05-2026 16:30 | 18,2 | 62,8 | 0 | 0 | 178 | 101,9 | 988,4 |
| 66 | Curicó | 04-05-2026 16:15 | 17,7 | 63,9 | 0 | 0 | 177 | 85,6 | 988,8 |
| 65 | Curicó | 04-05-2026 16:00 | 17,8 | 62,5 | 0 | 0 | 177 | 73,1 | 988,6 |
| 64 | Curicó | 04-05-2026 15:45 | 18,1 | 61,1 | 0 | 0 | 178 | 91,9 | 988,8 |
| 63 | Curicó | 04-05-2026 15:30 | 18,3 | 61,6 | 0 | 0 | 164 | 118,1 | 989 |
| 62 | Curicó | 04-05-2026 15:15 | 18,3 | 61,4 | 0 | 0 | 74 | 135,6 | 989,2 |
| 61 | Curicó | 04-05-2026 15:00 | 18,6 | 58,7 | 0 | 0 | 46 | 180,6 | 989,2 |
| 60 | Curicó | 04-05-2026 14:45 | 18,9 | 58,1 | 0 | 0 | 135 | 168,1 | 989,4 |
| 59 | Curicó | 04-05-2026 14:30 | 19 | 59,4 | 0 | 0 | 108 | 253,1 | 989,4 |
| 58 | Curicó | 04-05-2026 14:15 | 19,1 | 59,9 | 0 | 0,3 | 126 | 430,6 | 989,4 |
| 57 | Curicó | 04-05-2026 14:00 | 18,1 | 62,1 | 0 | 0,3 | 142 | 273,1 | 989,8 |
| 56 | Curicó | 04-05-2026 13:45 | 18,1 | 61,4 | 0 | 0,3 | 222 | 349,4 | 990,1 |
| 55 | Curicó | 04-05-2026 13:30 | 17,4 | 64,4 | 0 | 0,3 | 225 | 244,4 | 990,5 |
| 54 | Curicó | 04-05-2026 13:15 | 17,3 | 67,3 | 0 | 0 | 204 | 281,9 | 990,5 |
| 53 | Curicó | 04-05-2026 13:00 | 16,5 | 68,8 | 0 | 0 | 191 | 234,4 | 990,7 |
| 52 | Curicó | 04-05-2026 12:45 | 15,7 | 71,8 | 0 | 0 | 190 | 183,1 | 990,9 |
| 51 | Curicó | 04-05-2026 12:30 | 15,8 | 73,5 | 0 | 0 | 265 | 206,9 | 991,1 |
| 50 | Curicó | 04-05-2026 12:15 | 15,3 | 75,3 | 0 | 0 | 270 | 164,4 | 991,3 |
| 49 | Curicó | 04-05-2026 12:00 | 14,8 | 74,6 | 0 | 0,3 | 268 | 126,9 | 991,2 |
| 48 | Curicó | 04-05-2026 11:45 | 14,8 | 74,8 | 0 | 0 | 237 | 143,1 | 991,2 |
| 47 | Curicó | 04-05-2026 11:30 | 14,8 | 76,3 | 0 | 0 | 133 | 135,6 | 991,2 |
| 46 | Curicó | 04-05-2026 11:15 | 14,9 | 78,1 | 0 | 0 | 104 | 169,4 | 991,2 |
| 45 | Curicó | 04-05-2026 11:00 | 14,3 | 80,7 | 0 | 0 | 104 | 178,1 | 991,1 |
| 44 | Curicó | 04-05-2026 10:45 | 13,5 | 82,9 | 0 | 0 | 104 | 139,4 | 991,2 |
| 43 | Curicó | 04-05-2026 10:30 | 13,3 | 85,2 | 0 | 0 | 104 | 109,4 | 991,2 |
| 42 | Curicó | 04-05-2026 10:15 | 13 | 88,7 | 0 | 0 | 104 | 98,1 | 991,1 |
| 41 | Curicó | 04-05-2026 10:00 | 12,6 | 91,6 | 0 | 0 | 98 | 99,4 | 991,2 |
| 40 | Curicó | 04-05-2026 09:45 | 12 | 93,6 | 0 | 0 | 76 | 106,9 | 991,1 |
| 39 | Curicó | 04-05-2026 09:30 | 11,5 | 95,4 | 0 | 0 | 76 | 118,1 | 990,9 |
| 38 | Curicó | 04-05-2026 09:15 | 10,8 | 96,2 | 0 | 0 | 59 | 96,9 | 991 |
| 37 | Curicó | 04-05-2026 09:00 | 10,2 | 96,6 | 0 | 0 | 56 | 69,4 | 990,8 |
| 36 | Curicó | 04-05-2026 08:45 | 9,5 | 96,9 | 0 | 0 | 56 | 79,4 | 990,6 |
| 35 | Curicó | 04-05-2026 08:30 | 8,9 | 97,1 | 0 | 0 | 56 | 56,9 | 990,5 |
| 34 | Curicó | 04-05-2026 08:15 | 8,2 | 97 | 0 | 0 | 56 | 38,1 | 990,8 |
| 33 | Curicó | 04-05-2026 08:00 | 7,7 | 96,9 | 0 | 0 | 56 | 23,1 | 990,8 |
| 32 | Curicó | 04-05-2026 07:45 | 7,3 | 96,8 | 0 | 0 | 56 | 10,6 | 990,5 |
| 31 | Curicó | 04-05-2026 07:30 | 7 | 96,8 | 0 | 0 | 56 | 0,6 | 990,5 |
| 30 | Curicó | 04-05-2026 07:15 | 6,5 | 96,7 | 0 | 0 | 56 | 0,6 | 990,6 |
| 29 | Curicó | 04-05-2026 07:00 | 5,5 | 96,6 | 0 | 0 | 56 | 0,6 | 990,4 |
| 28 | Curicó | 04-05-2026 06:45 | 5 | 96,2 | 0 | 0 | 56 | 0,6 | 990,5 |
| 27 | Curicó | 04-05-2026 06:30 | 5,2 | 96,2 | 0 | 0 | 56 | 0,6 | 990,4 |
| 26 | Curicó | 04-05-2026 06:15 | 5,7 | 96 | 0 | 0 | 56 | 0,6 | 990,1 |
| 25 | Curicó | 04-05-2026 06:00 | 6,6 | 96 | 0 | 0 | 56 | 0,6 | 990,2 |
| 24 | Curicó | 04-05-2026 05:45 | 7,3 | 96 | 0 | 0 | 56 | 0,6 | 990 |
| 23 | Curicó | 04-05-2026 05:30 | 8 | 96,1 | 0 | 0 | 56 | 0,6 | 990,1 |
| 22 | Curicó | 04-05-2026 05:15 | 8 | 96 | 0 | 0 | 56 | 0,6 | 990,1 |
| 21 | Curicó | 04-05-2026 05:00 | 8 | 95,8 | 0 | 0 | 56 | 0,6 | 990,2 |
| 20 | Curicó | 04-05-2026 04:45 | 8,3 | 95,8 | 0 | 0 | 56 | 0,6 | 989,8 |
| 19 | Curicó | 04-05-2026 04:30 | 8,4 | 95,7 | 0 | 0 | 56 | 0,6 | 990 |
| 18 | Curicó | 04-05-2026 04:15 | 8,6 | 95,5 | 0 | 0 | 56 | 0,6 | 990,1 |
| 17 | Curicó | 04-05-2026 04:00 | 8,5 | 95,5 | 0 | 0 | 56 | 0,6 | 989,9 |
| 16 | Curicó | 04-05-2026 03:45 | 8,6 | 95,6 | 0 | 0 | 56 | 0,6 | 990,1 |
| 15 | Curicó | 04-05-2026 03:30 | 8,9 | 95,5 | 0 | 0 | 56 | 0,6 | 990,3 |
| 14 | Curicó | 04-05-2026 03:15 | 8,8 | 95,5 | 0 | 0 | 56 | 0,6 | 990,3 |
| 13 | Curicó | 04-05-2026 03:00 | 8,9 | 95,5 | 0 | 0 | 56 | 0,6 | 990,6 |
| 12 | Curicó | 04-05-2026 02:45 | 8,7 | 95,3 | 0 | 0 | 56 | 0,6 | 990,7 |
| 11 | Curicó | 04-05-2026 02:30 | 9 | 95,2 | 0 | 0 | 56 | 0,6 | 990,8 |
| 10 | Curicó | 04-05-2026 02:15 | 9,1 | 95,1 | 0 | 0 | 56 | 0,6 | 991 |
| 9 | Curicó | 04-05-2026 02:00 | 9,1 | 95 | 0 | 0 | 56 | 0,6 | 990,9 |
| 8 | Curicó | 04-05-2026 01:45 | 9,3 | 94,9 | 0 | 0 | 56 | 0,6 | 991 |
| 7 | Curicó | 04-05-2026 01:30 | 9,4 | 94,7 | 0 | 0 | 56 | 0,6 | 991,1 |
| 6 | Curicó | 04-05-2026 01:15 | 9,7 | 94,5 | 0 | 0 | 56 | 0,6 | 991 |
| 5 | Curicó | 04-05-2026 01:00 | 9,6 | 94,4 | 0 | 0 | 56 | 0,6 | 991,1 |
| 4 | Curicó | 04-05-2026 00:45 | 9,8 | 94,2 | 0 | 0 | 56 | 0,6 | 991,4 |
| 3 | Curicó | 04-05-2026 00:30 | 9,7 | 94 | 0 | 0 | 56 | 0,6 | 991,6 |
| 2 | Curicó | 04-05-2026 00:15 | 10 | 94 | 0 | 0 | 56 | 0,6 | 991,7 |
| 1 | Curicó | 04-05-2026 00:00 | 10,1 | 93,8 | 0 | 0 | 56 | 0,6 | 991,8 |